FW3322 Weather Reports


Display with metric or nautical units.
time (UTC)temp
F
wind
direction
speed
MPH
gust
MPH
rain 1hr
in
rain 24hr
in
rain mn
in
humidity
%
barometer
mb
20260510123005 61 60 9.0 16.0 0.00 0.00 0.00 74 1017.4
20260510121504 61 35 3.0 14.0 0.00 0.00 0.00 75 1017.1
20260510120058 0 0.0 0.0 0.00 0.00 0.00 1016.6
20260510114554 0 0.0 0.0 0.00 0.00 0.00 1016.4
20260510113049 0 0.0 0.0 0.00 0.00 0.00 1015.8
20260510111548 62 41 5.0 9.0 0.00 0.00 0.00 78 1015.6
20260510110045 61 30 6.0 11.0 0.00 0.00 0.00 78 1015.8
20260510104540 61 29 6.0 12.0 0.00 0.00 0.00 77 1015.6
20260510103040 62 28 5.0 11.0 0.00 0.00 0.00 76 1015.5
20260510101538 62 348 3.0 9.0 0.00 0.00 0.00 75 1015.5
20260510100034 63 63 5.0 8.0 0.00 0.00 0.00 73 1015.0
20260510094546 63 29 4.0 9.0 0.00 0.00 0.00 72 1014.9
20260510093045 64 35 7.0 13.0 0.00 0.00 0.00 71 1014.6
20260510091536 64 338 4.0 8.0 0.00 0.00 0.00 72 1014.4
20260510090027 65 21 4.0 7.0 0.00 0.00 0.00 71 1014.0
20260510084526 63 49 2.0 9.0 0.00 0.00 0.00 73 1013.6
20260510083023 62 312 0.0 0.0 0.00 0.00 0.00 81 1013.5
20260510081524 62 221 0.0 0.0 0.00 0.00 0.00 79 1013.4
20260510080024 63 221 0.0 0.0 0.00 0.00 0.00 80 1013.7
20260510074519 63 221 0.0 0.0 0.00 0.00 0.00 80 1013.6
20260510073019 63 221 0.0 0.0 0.00 0.00 0.00 77 1013.7
20260510071516 64 279 0.0 0.0 0.00 0.00 0.00 77 1013.6
20260510070021 65 279 0.0 0.0 0.00 0.00 0.00 75 1013.5
20260510064512 66 281 0.0 0.0 0.00 0.00 0.00 73 1013.5
20260510063010 66 323 0.0 1.0 0.00 0.00 0.00 72 1013.2
20260510061508 66 33 0.0 0.0 0.00 0.00 0.00 72 1013.0
20260510060009 67 33 0.0 0.0 0.00 0.00 0.00 72 1013.0
20260510054505 66 21 1.0 8.0 0.00 0.00 0.00 71 1012.9
20260510053105 64 11 1.0 4.0 0.00 0.00 0.00 82 1013.0
20260510051600 64 132 0.0 0.0 0.00 0.00 0.00 81 1013.0
20260510044556 64 132 0.0 0.0 0.00 0.00 0.00 80 1013.1
20260510043103 65 132 0.0 0.0 0.00 0.00 0.00 79 1013.2
20260510041555 65 132 0.0 0.0 0.00 0.00 0.00 78 1013.1
20260510040053 65 132 0.0 0.0 0.00 0.00 0.00 77 1012.9
20260510034553 66 132 0.0 0.0 0.00 0.00 0.00 77 1012.7
20260510033101 65 132 0.0 0.0 0.00 0.00 0.00 78 1012.5
20260510031551 65 132 0.0 0.0 0.00 0.00 0.00 76 1012.1
20260510030048 66 132 0.0 0.0 0.00 0.00 0.00 75 1011.9
20260510024548 66 132 0.0 0.0 0.00 0.00 0.00 73 1011.8
20260510023044 67 132 0.0 0.0 0.00 0.00 0.00 70 1011.5
20260510021549 68 132 0.0 0.0 0.00 0.00 0.00 69 1011.2
20260510020045 69 132 0.0 0.0 0.00 0.00 0.00 67 1010.8
20260510014544 70 132 0.0 0.0 0.00 0.00 0.00 65 1010.5
20260510013049 72 132 0.0 0.0 0.00 0.00 0.00 63 1010.1
20260510011545 73 132 0.0 1.0 0.00 0.00 0.00 60 1009.9
20260510010041 76 144 0.0 1.0 0.00 0.00 0.00 58 1009.7
20260510004543 78 153 0.0 4.0 0.00 0.00 0.00 56 1009.6
20260510003041 80 164 1.0 5.0 0.00 0.00 0.00 54 1009.6
20260510001542 81 151 0.0 5.0 0.00 0.00 0.00 54 1009.5
20260510000047 82 150 2.0 5.0 0.00 0.00 0.00 53 1009.5
20260509234538 82 143 2.0 6.0 0.00 0.00 0.00 52 1009.4
20260509233037 82 164 2.0 7.0 0.00 0.00 0.00 51 1009.5
20260509231540 83 159 5.0 8.0 0.00 0.00 0.00 50 1009.5
20260509230036 85 146 2.0 7.0 0.00 0.00 0.00 48 1009.5
20260509224534 85 155 1.0 6.0 0.00 0.00 0.00 47 1009.4
20260509223034 85 223 1.0 6.0 0.00 0.00 0.00 45 1009.5
20260509221534 85 230 2.0 7.0 0.00 0.00 0.00 45 1009.4
20260509220034 85 159 1.0 7.0 0.00 0.00 0.00 43 1009.6
20260509214530 85 137 3.0 6.0 0.00 0.00 0.00 45 1009.6
20260509213034 85 241 3.0 9.0 0.00 0.00 0.00 43 1009.7
20260509211529 84 278 3.0 9.0 0.00 0.00 0.00 43 1009.8
20260509210027 85 277 2.0 6.0 0.00 0.00 0.00 45 1010.0
20260509204524 84 147 2.0 7.0 0.00 0.00 0.00 46 1010.2
20260509203025 84 229 2.0 8.0 0.00 0.00 0.00 45 1010.3
20260509201520 85 281 1.0 7.0 0.00 0.00 0.00 44 1010.4
20260509200019 84 197 3.0 11.0 0.00 0.00 0.00 46 1010.7
20260509194518 85 270 3.0 6.0 0.00 0.00 0.00 47 1010.7
20260509193025 83 277 3.0 8.0 0.00 0.00 0.00 46 1010.9
20260509191614 83 212 2.0 11.0 0.00 0.00 0.00 46 1010.9
20260509190015 82 254 4.0 10.0 0.00 0.00 0.00 47 1010.8
20260509184528 83 202 3.0 8.0 0.00 0.00 0.00 49 1010.9
20260509183010 83 269 4.0 9.0 0.00 0.00 0.00 46 1011.1
20260509181506 82 355 2.0 9.0 0.00 0.00 0.00 45 1011.2
20260509180004 82 286 2.0 7.0 0.00 0.00 0.00 47 1011.2
20260509174502 82 285 4.0 9.0 0.00 0.00 0.00 47 1011.4
20260509173101 81 301 2.0 6.0 0.00 0.00 0.00 51 1011.6
20260509171559 80 69 3.0 9.0 0.00 0.00 0.00 51 1011.7
20260509170059 79 211 3.0 10.0 0.00 0.00 0.00 51 1011.6
20260509164551 78 210 4.0 9.0 0.00 0.00 0.00 52 1011.7
20260509163048 77 290 4.0 8.0 0.00 0.00 0.00 55 1011.7
20260509161549 76 324 4.0 8.0 0.00 0.00 0.00 57 1011.8
20260509160042 75 293 2.0 9.0 0.00 0.00 0.00 61 1011.8
20260509154539 75 280 4.0 8.0 0.00 0.00 0.00 62 1011.8
20260509153051 74 225 0.0 7.0 0.00 0.00 0.00 64 1011.7
20260509151535 73 303 0.0 5.0 0.00 0.00 0.00 66 1011.8
20260509150031 71 277 0.0 5.0 0.00 0.00 0.00 73 1011.8
20260509144531 69 188 0.0 1.0 0.00 0.00 0.00 79 1011.8
20260509143024 68 271 0.0 4.0 0.00 0.00 0.00 84 1011.8
20260509141521 66 166 0.0 1.0 0.00 0.00 0.00 90 1011.9
20260509140016 63 130 0.0 1.0 0.00 0.00 0.00 93 1011.8
20260509134512 61 148 0.0 2.0 0.00 0.00 0.00 96 1011.8
20260509133008 60 147 0.0 2.0 0.00 0.00 0.00 98 1011.7
20260509131504 58 149 0.0 1.0 0.00 0.00 0.00 99 1011.5
20260509130108 57 223 0.0 1.0 0.00 0.00 0.00 99 1011.5
20260509124559 56 254 0.0 1.0 0.00 0.00 0.00 99 1011.6